• In Österreich
  • Länderverzeichnis
  • Für 7 Tage
  • Wassertemperatur
  • Satellitenkarten
  • Wetterkarte
  • News
  • Widgets
  • user-avatar
    Anmelden

    Stündliche Wetter Fedkovo

    Heute, 18 September, Dienstag

    Zeit Temperatur Niederschläge Wind Luftdruck Luftfeuchtigkeit
    00:00 +12°C° 0.1 mm 4 m/S 743 mmHg 87%
    01:00 +12°C° 0.1 mm 4 m/S 743 mmHg 89%
    02:00 +12°C° 0 mm 3 m/S 743 mmHg 93%
    03:00 +11°C° 0 mm 3 m/S 743 mmHg 94%
    04:00 +11°C° 0 mm 3 m/S 743 mmHg 94%
    05:00 +11°C° 0 mm 4 m/S 744 mmHg 95%
    06:00 +11°C° 0 mm 4 m/S 744 mmHg 93%
    07:00 +11°C° 0 mm 4 m/S 745 mmHg 91%
    08:00 +11°C° 0 mm 4 m/S 745 mmHg 88%
    09:00 +12°C° 0 mm 4 m/S 745 mmHg 82%
    10:00 +13°C° 0 mm 4 m/S 745 mmHg 77%
    11:00 +14°C° 0 mm 4 m/S 746 mmHg 71%
    12:00 +15°C° 0 mm 4 m/S 746 mmHg 67%
    13:00 +17°C° 0 mm 4 m/S 746 mmHg 62%
    14:00 +18°C° 0 mm 3 m/S 746 mmHg 56%
    15:00 +17°C° 0 mm 3 m/S 746 mmHg 61%
    16:00 +16°C° 0 mm 2 m/S 746 mmHg 66%
    17:00 +16°C° 0 mm 2 m/S 746 mmHg 71%
    18:00 +14°C° 0 mm 2 m/S 746 mmHg 76%
    19:00 +13°C° 0 mm 1 m/S 746 mmHg 81%
    20:00 +12°C° 0 mm 1 m/S 746 mmHg 86%
    21:00 +10°C° 0 mm 2 m/S 746 mmHg 87%
    22:00 +10°C° 0 mm 2 m/S 746 mmHg 88%
    23:00 +10°C° 0 mm 2 m/S 746 mmHg 89%

    Morgen, 19 September, Mittwoch

    Zeit Temperatur Niederschläge Wind Luftdruck Luftfeuchtigkeit
    00:00 +10°C° 0 mm 2 m/S 746 mmHg 91%
    01:00 +10°C° 0 mm 2 m/S 746 mmHg 92%
    02:00 +12°C° 0 mm 2 m/S 746 mmHg 93%
    03:00 +12°C° 0 mm 2 m/S 746 mmHg 94%
    04:00 +12°C° 0 mm 2 m/S 746 mmHg 95%
    05:00 +11°C° 0 mm 3 m/S 745 mmHg 97%
    06:00 +12°C° 0 mm 3 m/S 745 mmHg 92%
    07:00 +13°C° 0 mm 3 m/S 745 mmHg 87%
    08:00 +16°C° 0 mm 3 m/S 745 mmHg 82%
    09:00 +18°C° 0 mm 3 m/S 745 mmHg 74%
    10:00 +19°C° 0 mm 4 m/S 745 mmHg 67%
    11:00 +21°C° 0 mm 4 m/S 745 mmHg 59%
    12:00 +22°C° 0 mm 4 m/S 745 mmHg 57%
    13:00 +23°C° 0 mm 4 m/S 745 mmHg 55%
    14:00 +25°C° 0 mm 4 m/S 745 mmHg 53%
    15:00 +24°C° 0 mm 3 m/S 745 mmHg 59%
    16:00 +22°C° 0 mm 3 m/S 744 mmHg 66%
    17:00 +21°C° 0 mm 2 m/S 744 mmHg 72%
    18:00 +19°C° 0 mm 2 m/S 744 mmHg 78%
    19:00 +18°C° 0 mm 2 m/S 744 mmHg 84%
    20:00 +17°C° 0 mm 2 m/S 744 mmHg 90%
    21:00 +17°C° 0 mm 2 m/S 744 mmHg 91%
    22:00 +16°C° 0 mm 2 m/S 744 mmHg 93%
    23:00 +16°C° 0 mm 2 m/S 744 mmHg 95%

    übermorgen, 20 September, Donnerstag

    Zeit Temperatur Niederschläge Wind Luftdruck Luftfeuchtigkeit
    00:00 +16°C° 0 mm 2 m/S 745 mmHg 96%
    01:00 +16°C° 0 mm 2 m/S 745 mmHg 97%
    02:00 +15°C° 0 mm 2 m/S 745 mmHg 98%
    03:00 +15°C° 0 mm 2 m/S 745 mmHg 98%
    04:00 +14°C° 0 mm 2 m/S 745 mmHg 98%
    05:00 +14°C° 0 mm 2 m/S 746 mmHg 98%
    06:00 +14°C° 0 mm 2 m/S 746 mmHg 95%
    07:00 +15°C° 0 mm 2 m/S 746 mmHg 92%
    08:00 +15°C° 0 mm 2 m/S 746 mmHg 89%
    09:00 +17°C° 0 mm 2 m/S 747 mmHg 81%
    10:00 +19°C° 0 mm 2 m/S 747 mmHg 73%
    11:00 +21°C° 0 mm 2 m/S 747 mmHg 64%
    12:00 +21°C° 0 mm 2 m/S 747 mmHg 62%
    13:00 +23°C° 0 mm 2 m/S 747 mmHg 59%
    14:00 +24°C° 0 mm 3 m/S 747 mmHg 56%
    15:00 +23°C° 0 mm 2 m/S 747 mmHg 62%
    16:00 +21°C° 0 mm 2 m/S 747 mmHg 68%
    17:00 +21°C° 0 mm 1 m/S 747 mmHg 74%
    18:00 +20°C° 0 mm 1 m/S 747 mmHg 79%
    19:00 +18°C° 0 mm 1 m/S 747 mmHg 84%
    20:00 +16°C° 0 mm 1 m/S 747 mmHg 89%
    21:00 +15°C° 0 mm 1 m/S 747 mmHg 90%
    22:00 +15°C° 0 mm 1 m/S 747 mmHg 91%
    23:00 +15°C° 0 mm 1 m/S 747 mmHg 93%

    21 September, Freitag

    Zeit Temperatur Niederschläge Wind Luftdruck Luftfeuchtigkeit
    00:00 +14°C° 0 mm 2 m/S 747 mmHg 93%
    01:00 +14°C° 0 mm 2 m/S 747 mmHg 94%
    02:00 +14°C° 0 mm 2 m/S 747 mmHg 94%
    03:00 +14°C° 0 mm 2 m/S 747 mmHg 95%
    04:00 +14°C° 0 mm 2 m/S 747 mmHg 95%
    05:00 +14°C° 0 mm 2 m/S 747 mmHg 96%
    06:00 +15°C° 0 mm 2 m/S 747 mmHg 92%
    07:00 +16°C° 0 mm 2 m/S 747 mmHg 88%
    08:00 +18°C° 0 mm 2 m/S 748 mmHg 84%
    09:00 +20°C° 0 mm 2 m/S 748 mmHg 79%
    10:00 +21°C° 0 mm 3 m/S 747 mmHg 73%
    11:00 +24°C° 0 mm 3 m/S 747 mmHg 68%
    12:00 +25°C° 0 mm 3 m/S 747 mmHg 65%
    13:00 +26°C° 0 mm 3 m/S 747 mmHg 61%
    14:00 +26°C° 0 mm 3 m/S 747 mmHg 58%
    15:00 +25°C° 0.2 mm 3 m/S 747 mmHg 64%
    16:00 +24°C° 0.2 mm 2 m/S 747 mmHg 71%
    17:00 +23°C° 0.2 mm 2 m/S 746 mmHg 77%
    18:00 +21°C° 0 mm 2 m/S 746 mmHg 82%
    19:00 +20°C° 0 mm 2 m/S 746 mmHg 86%
    20:00 +18°C° 0 mm 3 m/S 746 mmHg 90%
    21:00 +18°C° 0 mm 3 m/S 746 mmHg 91%
    22:00 +18°C° 0 mm 3 m/S 746 mmHg 92%
    23:00 +17°C° 0 mm 3 m/S 746 mmHg 92%

    22 September, Samstag

    Zeit Temperatur Niederschläge Wind Luftdruck Luftfeuchtigkeit
    00:00 +17°C° 0 mm 3 m/S 745 mmHg 92%
    01:00 +17°C° 0 mm 3 m/S 745 mmHg 92%
    02:00 +17°C° 0 mm 3 m/S 745 mmHg 92%
    03:00 +17°C° 0 mm 3 m/S 744 mmHg 91%
    04:00 +15°C° 0 mm 4 m/S 744 mmHg 90%
    05:00 +15°C° 0 mm 4 m/S 743 mmHg 89%
    06:00 +17°C° 0 mm 4 m/S 743 mmHg 83%
    07:00 +17°C° 0 mm 5 m/S 743 mmHg 78%
    08:00 +17°C° 0 mm 5 m/S 742 mmHg 73%
    09:00 +20°C° 0 mm 6 m/S 742 mmHg 66%
    10:00 +21°C° 0 mm 6 m/S 742 mmHg 60%
    11:00 +23°C° 0 mm 6 m/S 741 mmHg 53%
    12:00 +23°C° 0 mm 6 m/S 741 mmHg 51%
    13:00 +24°C° 0 mm 6 m/S 740 mmHg 49%
    14:00 +26°C° 0 mm 6 m/S 740 mmHg 47%
    15:00 +23°C° 0.1 mm 5 m/S 740 mmHg 53%
    16:00 +22°C° 0.1 mm 5 m/S 740 mmHg 59%
    17:00 +21°C° 0.1 mm 4 m/S 740 mmHg 65%
    18:00 +19°C° 0.6 mm 4 m/S 740 mmHg 74%
    19:00 +17°C° 0.6 mm 3 m/S 740 mmHg 83%
    20:00 +13°C° 0.6 mm 3 m/S 740 mmHg 91%
    21:00 +13°C° 0.1 mm 3 m/S 741 mmHg 91%
    22:00 +12°C° 0.1 mm 3 m/S 741 mmHg 91%
    23:00 +12°C° 0.1 mm 2 m/S 741 mmHg 91%

    23 September, Sonntag

    Zeit Temperatur Niederschläge Wind Luftdruck Luftfeuchtigkeit
    00:00 +10°C° 0.3 mm 3 m/S 741 mmHg 91%
    01:00 +10°C° 0.3 mm 3 m/S 741 mmHg 92%
    02:00 +10°C° 0.3 mm 3 m/S 741 mmHg 92%
    03:00 +9°C° 1 mm 3 m/S 741 mmHg 92%
    04:00 +9°C° 1 mm 3 m/S 741 mmHg 93%
    05:00 +9°C° 1 mm 2 m/S 741 mmHg 94%
    06:00 +9°C° 1 mm 2 m/S 741 mmHg 94%
    07:00 +9°C° 1 mm 2 m/S 741 mmHg 94%
    08:00 +9°C° 1 mm 2 m/S 741 mmHg 95%
    09:00 +9°C° 0.5 mm 2 m/S 741 mmHg 93%
    10:00 +10°C° 0.5 mm 2 m/S 741 mmHg 92%
    11:00 +10°C° 0.5 mm 2 m/S 741 mmHg 90%
    12:00 +12°C° 0.1 mm 2 m/S 741 mmHg 86%
    13:00 +13°C° 0.1 mm 2 m/S 741 mmHg 81%
    14:00 +12°C° 0.1 mm 3 m/S 742 mmHg 77%
    15:00 +13°C° 0 mm 2 m/S 742 mmHg 78%
    16:00 +13°C° 0 mm 2 m/S 742 mmHg 79%
    17:00 +13°C° 0 mm 2 m/S 742 mmHg 80%
    18:00 +10°C° 0 mm 2 m/S 742 mmHg 84%
    19:00 +9°C° 0 mm 2 m/S 742 mmHg 88%
    20:00 +8°C° 0 mm 2 m/S 742 mmHg 92%
    21:00 +8°C° 0 mm 2 m/S 742 mmHg 93%
    22:00 +7°C° 0 mm 2 m/S 743 mmHg 94%
    23:00 +7°C° 0 mm 2 m/S 743 mmHg 95%
    Mehr zeigen